Tracking 30970 objects as of 3-Jul-2025
HD Live streaming from Space Station
objects crossing your sky now

BREEZE-M DEB (TANK)

Track BREEZE-M DEB (TANK) now!


NORAD ID: 38979
Int'l Code: 2012-061C
Perigee: 839.9 km
Apogee: 35,209.4 km
Inclination: 47.5 °
Period: 632.0 minutes
Semi major axis: 24395 km
RCS: 7.6752 m2 (large)
Launch date: November 2, 2012
Source: Commonwealth of Independent States (former USSR) (CIS)
Launch site: TYURATAM MISSILE AND SPACE COMPLEX (TTMTR)

Note: This is SATELLITE DEBRIS
Your satellite tracking list
Your tracking list is empty




NASA's NSSDC Master Catalog

Two Line Element Set (TLE):
1 38979U 12061C   25182.52285330 -.00000082  00000-0  18941-2 0  9998
2 38979  47.5305 265.6294 7044180  12.7541 358.4447  2.27842204103808
Source of the keplerian elements: AFSPC